STARLINK-11475, 62226

Orbit data source: Space-Track

STARLINK-11475, 62226 is a payload satellite owned by SpaceX/Seattle (US) in LEO that was launched on Thu, 05 Dec 2024 UTC via an FALCON 9 launch vehicle from the Air Force Western Test Range (AFWTR). Payload-class satellites include a variety of spacecraft equipped with specific instruments for various scientific and technological missions. These include communications satellites like Starlink; space stations such as the ISS; scientific satellites like the Hubble; Earth observation satellites from companies like Planet Labs, Umbra, and HawkEye 360; GPS; miniature CubeSats for education and research; and military/defense satellites.

Loading next visibility...
Identifier
62226, 2024-231J
Orbit
LEO
Last TLE update
17 hours ago
Origin
Manufacturer
SpaceX/Seattle
Mission
Operational Commercial Communications
Bus & Motor
STARLINK V2M, Unknown motor
Mass
730 kg wet, ~700 kg dry
Launch date (UTC)
2024-12-05 (7 months ago)
Launch vehicle
FALCON 9
Launch site
Air Force Western Test Range (AFWTR)
Object type
Payload
Rocket body
Debris
Shape & HBR
Box + 2 Pan, 14.5 m
Radar Cross Section
36.964 m², Large (>1 m²)

Expand to show TLE details & history

TLE from 17 hours ago
0 STARLINK-11475
1 62226U 24231J   25199.25912164  .00025042  00000-0  21060-3 0  9991
2 62226  53.1559 176.7674 0001375 121.8000 238.3152 15.69748105 36597
Epoch: 2025-07-18T06:13Z
TLE epoch observation values (Epoch: 2025-07-18T06:13:08.109Z)
Latitude
-0.00003°
Longitude
147.17044°
Altitude
361.019 km
Speed
7.694 km/s
True Right ascension
11h 47m 04s
True Declination
0° 00' 00"
Sunlit
Object was in daylight at epoch
Visualization orbit readout
Latitude
53.31042°
Longitude
-126.30285°
Altitude
365.303 km
Speed
7.697 km/s
Apparent Right ascension
21h 18m 44s
Apparent Declination
12° 45' 53"
Sunlit
Object is in daylight
Visualization observer readout
Local Sidereal Time
12:12:07
Azimuth
46.985° ENE
Elevation
-23.717°
Doppler factor
1
Orbital elements
Apogee altitude
360.806 km
Perigee altitude
358.953 km
Semi-major axis
6,738.016 km
Eccentricity
0.00014
Inclination
53.1559°
RAAN
176.7674°
Arg. of periapsis
121.8°
True anomaly
238.30179°
Mean anomaly
238.3152°
Eccentric anomaly
238.3085°
Mean motion
3.92415 °/min
Orbital period
91.74 mins
BSTAR
0.0002106
Loading maneuver chart data...
Loading SW <> Apogee altitude chart data...
Loading historical data...
Loading historical data...
Loading historical data...
Loading historical data...
Loading historical data...
Loading historical data...
Loading historical data...
|